| time (UTC) | temp F | wind direction | speed knots | gust knots | rain 1hr in | rain 24hr in | rain mn in | humidity % | barometer mb |
| 20260503005608 | 44 | 289 | 0.9 | 1.7 | 0.00 | 0.00 | 0.00 | 61 | 1015.0 |
| 20260503005106 | 44 | 321 | 0.9 | 1.7 | 0.00 | 0.00 | 0.00 | 61 | 1015.1 |
| 20260503004608 | 45 | 281 | 1.7 | 1.7 | 0.00 | 0.00 | 0.00 | 59 | 1015.0 |
| 20260503004106 | 45 | 236 | 1.7 | 1.7 | 0.00 | 0.00 | 0.00 | 58 | 1014.9 |
| 20260503003607 | 45 | 276 | 3.5 | 6.1 | 0.00 | 0.00 | 0.00 | 58 | 1015.0 |
| 20260503003107 | 46 | 302 | 0.9 | 0.9 | 0.00 | 0.00 | 0.00 | 57 | 1014.9 |
| 20260503002606 | 46 | 306 | 3.5 | 5.2 | 0.00 | 0.00 | 0.00 | 56 | 1014.9 |
| 20260503002106 | 46 | 301 | 2.6 | 5.2 | 0.00 | 0.00 | 0.00 | 56 | 1014.8 |
| 20260503001607 | 46 | 280 | 1.7 | 2.6 | 0.00 | 0.00 | 0.00 | 56 | 1014.7 |
| 20260503001106 | 46 | 295 | 2.6 | 5.2 | 0.00 | 0.00 | 0.00 | 55 | 1014.7 |
| 20260503000607 | 46 | 201 | 0.9 | 1.7 | 0.00 | 0.00 | 0.00 | 56 | 1014.8 |
| 20260503000106 | 47 | 288 | 1.7 | 2.6 | 0.00 | 0.00 | 0.00 | 54 | 1014.6 |
| 20260502235606 | 47 | 281 | 2.6 | 5.2 | 0.00 | 0.00 | 0.00 | 54 | 1014.5 |
| 20260502235107 | 47 | 18 | 1.7 | 1.7 | 0.00 | 0.00 | 0.00 | 54 | 1014.6 |
| 20260502234607 | 47 | 302 | 1.7 | 3.5 | 0.00 | 0.00 | 0.00 | 53 | 1014.5 |
| 20260502234106 | 47 | 316 | 2.6 | 5.2 | 0.00 | 0.00 | 0.00 | 53 | 1014.6 |
| 20260502233607 | 48 | 286 | 5.2 | 7.0 | 0.00 | 0.00 | 0.00 | 53 | 1014.5 |
| 20260502233106 | 48 | 280 | 1.7 | 5.2 | 0.00 | 0.00 | 0.00 | 52 | 1014.5 |
| 20260502232606 | 48 | 279 | 4.3 | 7.8 | 0.00 | 0.00 | 0.00 | 51 | 1014.4 |
| 20260502232106 | 49 | 280 | 6.1 | 8.7 | 0.00 | 0.00 | 0.00 | 51 | 1014.3 |
| 20260502231606 | 48 | 348 | 1.7 | 4.3 | 0.00 | 0.00 | 0.00 | 51 | 1014.3 |
| 20260502231106 | 48 | 289 | 3.5 | 5.2 | 0.00 | 0.00 | 0.00 | 52 | 1014.4 |
| 20260502230606 | 48 | 313 | 2.6 | 5.2 | 0.00 | 0.00 | 0.00 | 53 | 1014.4 |
| 20260502230106 | 48 | 324 | 1.7 | 5.2 | 0.00 | 0.00 | 0.00 | 53 | 1014.4 |
| 20260502225606 | 48 | 320 | 2.6 | 4.3 | 0.00 | 0.00 | 0.00 | 53 | 1014.4 |
| 20260502225106 | 48 | 288 | 2.6 | 5.2 | 0.00 | 0.00 | 0.00 | 53 | 1014.3 |
| 20260502224606 | 48 | 283 | 5.2 | 11.3 | 0.00 | 0.00 | 0.00 | 52 | 1014.3 |
| 20260502224106 | 48 | 261 | 3.5 | 7.0 | 0.00 | 0.00 | 0.00 | 52 | 1014.2 |
| 20260502223606 | 48 | 280 | 4.3 | 7.8 | 0.00 | 0.00 | 0.00 | 52 | 1014.1 |
| 20260502223107 | 49 | 293 | 2.6 | 5.2 | 0.00 | 0.00 | 0.00 | 52 | 1014.2 |
| 20260502222606 | 49 | 301 | 3.5 | 5.2 | 0.00 | 0.00 | 0.00 | 52 | 1014.2 |
| 20260502222106 | 49 | 297 | 1.7 | 5.2 | 0.00 | 0.00 | 0.00 | 51 | 1014.1 |
| 20260502221607 | 49 | 297 | 5.2 | 6.1 | 0.00 | 0.00 | 0.00 | 51 | 1014.1 |
| 20260502221106 | 48 | 335 | 0.9 | 1.7 | 0.00 | 0.00 | 0.00 | 52 | 1014.0 |
| 20260502220606 | 49 | 304 | 1.7 | 4.3 | 0.00 | 0.00 | 0.00 | 51 | 1014.0 |
| 20260502220110 | 49 | 271 | 3.5 | 6.1 | 0.00 | 0.00 | 0.00 | 52 | 1014.0 |
| 20260502215607 | 49 | 305 | 2.6 | 5.2 | 0.00 | 0.00 | 0.00 | 51 | 1013.9 |
| 20260502215107 | 49 | 327 | 3.5 | 5.2 | 0.00 | 0.00 | 0.00 | 50 | 1013.9 |
| 20260502214606 | 49 | 285 | 3.5 | 5.2 | 0.00 | 0.00 | 0.00 | 51 | 1013.9 |
| 20260502214106 | 49 | 292 | 3.5 | 6.1 | 0.00 | 0.00 | 0.00 | 50 | 1014.0 |
| 20260502213607 | 48 | 311 | 2.6 | 4.3 | 0.00 | 0.00 | 0.00 | 52 | 1013.9 |
| 20260502213106 | 48 | 283 | 4.3 | 7.0 | 0.00 | 0.00 | 0.00 | 53 | 1014.0 |
| 20260502212606 | 48 | 277 | 2.6 | 5.2 | 0.00 | 0.00 | 0.00 | 53 | 1013.9 |
| 20260502212106 | 48 | 293 | 3.5 | 5.2 | 0.00 | 0.00 | 0.00 | 54 | 1013.9 |
| 20260502211606 | 48 | 288 | 4.3 | 6.1 | 0.00 | 0.00 | 0.00 | 53 | 1013.7 |
| 20260502211106 | 49 | 264 | 2.6 | 5.2 | 0.00 | 0.00 | 0.00 | 52 | 1013.7 |
| 20260502210606 | 49 | 93 | 0.9 | 1.7 | 0.00 | 0.00 | 0.00 | 52 | 1013.7 |
| 20260502210107 | 49 | 270 | 1.7 | 3.5 | 0.00 | 0.00 | 0.00 | 50 | 1013.6 |
| 20260502205606 | 49 | 291 | 6.1 | 7.8 | 0.00 | 0.00 | 0.00 | 50 | 1013.5 |
| 20260502205106 | 49 | 303 | 2.6 | 4.3 | 0.00 | 0.00 | 0.00 | 50 | 1013.6 |
| 20260502204607 | 49 | 285 | 3.5 | 6.1 | 0.00 | 0.00 | 0.00 | 50 | 1013.6 |
| 20260502204107 | 49 | 269 | 4.3 | 6.1 | 0.00 | 0.00 | 0.00 | 50 | 1013.7 |
| 20260502203606 | 49 | 276 | 1.7 | 5.2 | 0.00 | 0.00 | 0.00 | 52 | 1013.7 |
| 20260502203107 | 49 | 275 | 5.2 | 7.8 | 0.00 | 0.00 | 0.00 | 51 | 1013.7 |
| 20260502202606 | 49 | 298 | 3.5 | 5.2 | 0.00 | 0.00 | 0.00 | 53 | 1013.9 |
| 20260502202106 | 49 | 298 | 3.5 | 6.1 | 0.00 | 0.00 | 0.00 | 53 | 1013.9 |
| 20260502201606 | 49 | 6 | 1.7 | 2.6 | 0.00 | 0.00 | 0.00 | 52 | 1014.0 |
| 20260502201107 | 49 | 20 | 0.9 | 2.6 | 0.00 | 0.00 | 0.00 | 51 | 1014.0 |
| 20260502200608 | 50 | 299 | 6.1 | 10.4 | 0.00 | 0.00 | 0.00 | 49 | 1013.9 |
| 20260502200106 | 50 | 288 | 5.2 | 7.8 | 0.00 | 0.00 | 0.00 | 50 | 1013.7 |
| 20260502195606 | 50 | 330 | 3.5 | 5.2 | 0.00 | 0.00 | 0.00 | 48 | 1013.7 |
| 20260502195106 | 50 | 273 | 7.8 | 11.3 | 0.00 | 0.00 | 0.00 | 48 | 1014.0 |
| 20260502194606 | 50 | 336 | 2.6 | 4.3 | 0.00 | 0.00 | 0.00 | 50 | 1014.0 |
| 20260502194106 | 50 | 272 | 4.3 | 6.1 | 0.00 | 0.00 | 0.00 | 49 | 1014.1 |
| 20260502193606 | 51 | 298 | 2.6 | 4.3 | 0.00 | 0.00 | 0.00 | 48 | 1014.0 |
| 20260502193107 | 51 | 325 | 3.5 | 6.1 | 0.00 | 0.00 | 0.00 | 50 | 1013.9 |
| 20260502192606 | 50 | 297 | 3.5 | 5.2 | 0.00 | 0.00 | 0.00 | 49 | 1014.0 |
| 20260502192106 | 51 | 306 | 7.0 | 9.6 | 0.00 | 0.00 | 0.00 | 49 | 1014.0 |
| 20260502191606 | 50 | 255 | 5.2 | 7.8 | 0.00 | 0.00 | 0.00 | 49 | 1013.9 |
| 20260502191106 | 49 | 247 | 2.6 | 5.2 | 0.00 | 0.00 | 0.00 | 51 | 1014.0 |
| 20260502190606 | 49 | 275 | 4.3 | 7.8 | 0.00 | 0.00 | 0.00 | 50 | 1014.0 |
| 20260502190106 | 50 | 260 | 5.2 | 8.7 | 0.00 | 0.00 | 0.00 | 49 | 1014.0 |
| 20260502185606 | 51 | 302 | 6.1 | 7.8 | 0.00 | 0.00 | 0.00 | 48 | 1013.9 |
| 20260502185106 | 51 | 287 | 5.2 | 8.7 | 0.00 | 0.00 | 0.00 | 48 | 1014.0 |
| 20260502184607 | 51 | 337 | 3.5 | 5.2 | 0.00 | 0.00 | 0.00 | 48 | 1014.0 |
| 20260502184107 | 51 | 312 | 5.2 | 8.7 | 0.00 | 0.00 | 0.00 | 49 | 1014.0 |
| 20260502183606 | 52 | 290 | 5.2 | 7.8 | 0.00 | 0.00 | 0.00 | 46 | 1013.9 |
| 20260502183108 | 51 | 232 | 0.9 | 1.7 | 0.00 | 0.00 | 0.00 | 45 | 1014.0 |
| 20260502182607 | 51 | 281 | 3.5 | 5.2 | 0.00 | 0.00 | 0.00 | 47 | 1014.0 |
| 20260502182107 | 50 | 282 | 7.8 | 11.3 | 0.00 | 0.00 | 0.00 | 48 | 1014.2 |
| 20260502181606 | 50 | 297 | 1.7 | 4.3 | 0.00 | 0.00 | 0.00 | 51 | 1014.3 |
| 20260502181107 | 50 | 286 | 2.6 | 6.1 | 0.00 | 0.00 | 0.00 | 47 | 1014.4 |
| 20260502180606 | 50 | 271 | 2.6 | 3.5 | 0.00 | 0.00 | 0.00 | 47 | 1014.2 |
| 20260502180107 | 50 | 300 | 4.3 | 10.4 | 0.00 | 0.00 | 0.00 | 49 | 1014.2 |
| 20260502170106 | 50 | 177 | 3.5 | 5.2 | 0.00 | 0.00 | 0.00 | 47 | 1014.3 |
| 20260502164107 | 50 | 309 | 4.3 | 6.1 | 0.00 | 0.00 | 0.00 | 50 | 1014.5 |
| 20260502163607 | 50 | 310 | 7.0 | 10.4 | 0.00 | 0.00 | 0.00 | 49 | 1014.5 |
| 20260502163107 | 50 | 161 | 1.7 | 2.6 | 0.00 | 0.00 | 0.00 | 48 | 1014.5 |
| 20260502162606 | 49 | 152 | 2.6 | 3.5 | 0.00 | 0.00 | 0.00 | 47 | 1014.5 |
| 20260502162109 | 49 | 351 | 4.3 | 6.1 | 0.00 | 0.00 | 0.00 | 50 | 1014.7 |
| 20260502161606 | 50 | 293 | 3.5 | 5.2 | 0.00 | 0.00 | 0.00 | 50 | 1014.6 |
| 20260502161107 | 49 | 345 | 2.6 | 3.5 | 0.00 | 0.00 | 0.00 | 50 | 1014.7 |
| 20260502160607 | 49 | 156 | 2.6 | 5.2 | 0.00 | 0.00 | 0.00 | 48 | 1014.7 |
| 20260502160107 | 49 | 295 | 5.2 | 8.7 | 0.00 | 0.00 | 0.00 | 50 | 1014.9 |
| 20260502152107 | 48 | 27 | 1.7 | 3.5 | 0.00 | 0.00 | 0.00 | 52 | 1015.1 |
| 20260502151607 | 47 | 346 | 3.5 | 7.0 | 0.00 | 0.00 | 0.00 | 49 | 1015.1 |
| 20260502151106 | 47 | 270 | 3.5 | 7.0 | 0.00 | 0.00 | 0.00 | 48 | 1015.0 |
| 20260502150607 | 47 | 255 | 5.2 | 7.8 | 0.00 | 0.00 | 0.00 | 49 | 1014.9 |
| 20260502150106 | 48 | 41 | 5.2 | 7.0 | 0.00 | 0.00 | 0.00 | 49 | 1014.9 |
| 20260502140107 | 44 | 336 | 2.6 | 5.2 | 0.00 | 0.00 | 0.00 | 63 | 1015.1 |
| 20260502130608 | 42 | 237 | 1.7 | 2.6 | 0.00 | 0.00 | 0.00 | 69 | 1015.4 |
| 20260502130107 | 42 | 134 | 0.9 | 0.9 | 0.00 | 0.00 | 0.00 | 68 | 1015.4 |
| 20260502123606 | 42 | 243 | 1.7 | 1.7 | 0.00 | 0.00 | 0.00 | 69 | 1015.4 |
| 20260502123106 | 41 | 299 | 0.9 | 0.9 | 0.00 | 0.00 | 0.00 | 70 | 1015.2 |
| 20260502122606 | 41 | 275 | 0.0 | 0.9 | 0.00 | 0.00 | 0.00 | 72 | 1015.2 |
| 20260502122106 | 41 | 94 | 1.7 | 2.6 | 0.00 | 0.00 | 0.00 | 72 | 1015.2 |
| 20260502121606 | 41 | 81 | 0.0 | 0.0 | 0.00 | 0.00 | 0.00 | 71 | 1015.2 |
| 20260502121106 | 41 | 354 | 1.7 | 2.6 | 0.00 | 0.00 | 0.00 | 74 | 1015.2 |
| 20260502120606 | 40 | 0 | 0.0 | 0.0 | 0.00 | 0.00 | 0.00 | 74 | 1015.4 |
| 20260502115620 | 40 | 238 | 0.9 | 0.9 | 0.00 | 0.00 | 0.00 | 75 | 1015.5 |
| 20260502115107 | 40 | 270 | 0.9 | 1.7 | 0.00 | 0.00 | 0.00 | 77 | 1015.4 |
| 20260502114606 | 39 | 187 | 0.0 | 0.9 | 0.00 | 0.00 | 0.00 | 79 | 1015.2 |
| 20260502114107 | 38 | 326 | 0.0 | 0.9 | 0.00 | 0.00 | 0.00 | 79 | 1015.2 |
| 20260502113608 | 38 | 234 | 0.9 | 0.9 | 0.00 | 0.00 | 0.00 | 79 | 1015.1 |
| 20260502113107 | 38 | 0 | 0.0 | 0.0 | 0.00 | 0.00 | 0.00 | 80 | 1015.2 |
| 20260502112606 | 37 | 311 | 0.0 | 0.0 | 0.00 | 0.00 | 0.00 | 80 | 1015.2 |
| 20260502112107 | 37 | 23 | 0.0 | 0.0 | 0.00 | 0.00 | 0.00 | 81 | 1015.1 |
| 20260502111607 | 37 | 61 | 0.0 | 0.0 | 0.00 | 0.00 | 0.00 | 81 | 1015.1 |
| 20260502111107 | 37 | 0 | 0.0 | 0.0 | 0.00 | 0.00 | 0.00 | 81 | 1014.9 |
| 20260502110607 | 37 | 143 | 0.0 | 0.9 | 0.00 | 0.00 | 0.00 | 80 | 1014.9 |
| 20260502110107 | 37 | 0 | 0.0 | 0.0 | 0.00 | 0.00 | 0.00 | 80 | 1015.0 |
| 20260502105609 | 37 | 75 | 0.0 | 0.9 | 0.00 | 0.00 | 0.00 | 79 | 1014.9 |
| 20260502105106 | 37 | 0 | 0.0 | 0.0 | 0.00 | 0.00 | 0.00 | 80 | 1014.8 |
| 20260502104608 | 37 | 0 | 0.0 | 0.0 | 0.00 | 0.00 | 0.00 | 80 | 1014.8 |
| 20260502104106 | 38 | 0 | 0.0 | 0.0 | 0.00 | 0.00 | 0.00 | 79 | 1014.8 |
| 20260502103607 | 38 | 9 | 0.0 | 0.9 | 0.00 | 0.00 | 0.00 | 77 | 1014.7 |
| 20260502103107 | 38 | 233 | 0.9 | 0.9 | 0.00 | 0.00 | 0.00 | 77 | 1014.8 |
| 20260502102608 | 38 | 130 | 0.0 | 0.9 | 0.00 | 0.00 | 0.00 | 77 | 1014.6 |
| 20260502102107 | 38 | 0 | 0.0 | 0.0 | 0.00 | 0.00 | 0.00 | 76 | 1014.7 |
| 20260502101607 | 39 | 113 | 0.0 | 0.9 | 0.00 | 0.00 | 0.00 | 76 | 1014.7 |
| 20260502101106 | 39 | 0 | 0.0 | 0.0 | 0.00 | 0.00 | 0.00 | 74 | 1014.8 |
| 20260502100606 | 39 | 62 | 0.0 | 0.9 | 0.00 | 0.00 | 0.00 | 74 | 1014.8 |
| 20260502100106 | 40 | 61 | 0.0 | 0.9 | 0.00 | 0.00 | 0.00 | 73 | 1014.9 |
| 20260502091106 | 43 | 292 | 0.9 | 1.7 | 0.00 | 0.00 | 0.00 | 63 | 1015.1 |
| 20260502090606 | 43 | 243 | 0.9 | 1.7 | 0.00 | 0.00 | 0.00 | 62 | 1015.1 |
| 20260502090107 | 43 | 327 | 0.9 | 0.9 | 0.00 | 0.00 | 0.00 | 62 | 1015.1 |
| 20260502080106 | 44 | 297 | 2.6 | 3.5 | 0.00 | 0.00 | 0.00 | 70 | 1014.9 |
| 20260502071106 | 45 | 279 | 1.7 | 2.6 | 0.00 | 0.00 | 0.00 | 70 | 1014.8 |
| 20260502070607 | 45 | 275 | 1.7 | 3.5 | 0.00 | 0.00 | 0.00 | 70 | 1014.7 |
| 20260502070107 | 45 | 299 | 2.6 | 5.2 | 0.00 | 0.00 | 0.00 | 69 | 1014.7 |
| 20260502065607 | 45 | 339 | 1.7 | 2.6 | 0.00 | 0.00 | 0.00 | 70 | 1014.8 |
| 20260502065107 | 46 | 293 | 3.5 | 5.2 | 0.00 | 0.00 | 0.00 | 70 | 1014.9 |
| 20260502064606 | 46 | 293 | 1.7 | 2.6 | 0.00 | 0.00 | 0.00 | 73 | 1015.0 |
| 20260502064107 | 46 | 294 | 2.6 | 3.5 | 0.00 | 0.00 | 0.00 | 73 | 1014.9 |
| 20260502063607 | 46 | 180 | 1.7 | 3.5 | 0.00 | 0.00 | 0.00 | 73 | 1015.0 |
| 20260502063107 | 46 | 274 | 4.3 | 5.2 | 0.00 | 0.00 | 0.00 | 74 | 1015.0 |
| 20260502062607 | 46 | 295 | 3.5 | 4.3 | 0.00 | 0.00 | 0.00 | 75 | 1015.1 |
| 20260502062107 | 46 | 302 | 4.3 | 7.8 | 0.00 | 0.00 | 0.00 | 75 | 1015.1 |
| 20260502061607 | 46 | 291 | 3.5 | 5.2 | 0.00 | 0.00 | 0.00 | 75 | 1015.1 |
| 20260502061107 | 47 | 296 | 2.6 | 3.5 | 0.00 | 0.00 | 0.00 | 75 | 1015.1 |
| 20260502060606 | 47 | 287 | 2.6 | 3.5 | 0.00 | 0.00 | 0.00 | 75 | 1015.2 |
| 20260502060107 | 47 | 274 | 3.5 | 5.2 | 0.00 | 0.00 | 0.00 | 75 | 1015.2 |
| 20260502055606 | 47 | 287 | 2.6 | 3.5 | 0.00 | 0.00 | 0.00 | 75 | 1015.2 |
| 20260502055106 | 47 | 86 | 1.7 | 2.6 | 0.00 | 0.00 | 0.00 | 75 | 1015.2 |
| 20260502054606 | 47 | 283 | 1.7 | 1.7 | 0.00 | 0.00 | 0.00 | 74 | 1015.2 |
| 20260502054106 | 47 | 31 | 0.9 | 1.7 | 0.00 | 0.00 | 0.00 | 74 | 1015.2 |
| 20260502053606 | 47 | 244 | 2.6 | 3.5 | 0.00 | 0.00 | 0.00 | 74 | 1015.2 |
| 20260502053106 | 47 | 302 | 0.9 | 1.7 | 0.00 | 0.00 | 0.00 | 74 | 1015.1 |
| 20260502052608 | 47 | 186 | 0.9 | 0.9 | 0.00 | 0.00 | 0.00 | 73 | 1015.0 |
| 20260502052106 | 47 | 271 | 2.6 | 3.5 | 0.00 | 0.00 | 0.00 | 73 | 1015.1 |
| 20260502051606 | 48 | 266 | 1.7 | 2.6 | 0.00 | 0.00 | 0.00 | 73 | 1015.0 |
| 20260502051106 | 48 | 286 | 2.6 | 3.5 | 0.00 | 0.00 | 0.00 | 73 | 1015.0 |
| 20260502050607 | 48 | 179 | 1.7 | 1.7 | 0.00 | 0.00 | 0.00 | 72 | 1015.1 |
| 20260502050106 | 48 | 313 | 0.9 | 0.9 | 0.00 | 0.00 | 0.00 | 72 | 1015.1 |
| 20260502045607 | 48 | 291 | 2.6 | 2.6 | 0.00 | 0.00 | 0.00 | 72 | 1015.0 |
| 20260502045106 | 48 | 294 | 3.5 | 5.2 | 0.00 | 0.00 | 0.00 | 72 | 1015.0 |
| 20260502044606 | 48 | 296 | 2.6 | 6.1 | 0.00 | 0.00 | 0.00 | 72 | 1015.0 |
| 20260502044106 | 48 | 258 | 3.5 | 4.3 | 0.00 | 0.00 | 0.00 | 72 | 1015.0 |
| 20260502043607 | 48 | 250 | 1.7 | 3.5 | 0.00 | 0.00 | 0.00 | 71 | 1015.0 |
| 20260502043107 | 48 | 297 | 5.2 | 7.0 | 0.00 | 0.00 | 0.00 | 71 | 1015.1 |
| 20260502042606 | 48 | 296 | 3.5 | 5.2 | 0.00 | 0.00 | 0.00 | 71 | 1015.2 |
| 20260502042106 | 49 | 280 | 3.5 | 5.2 | 0.00 | 0.00 | 0.00 | 71 | 1015.2 |
| 20260502041607 | 49 | 291 | 3.5 | 5.2 | 0.00 | 0.00 | 0.00 | 71 | 1015.1 |
| 20260502041107 | 49 | 279 | 2.6 | 4.3 | 0.00 | 0.00 | 0.00 | 71 | 1015.1 |
| 20260502040607 | 49 | 287 | 3.5 | 4.3 | 0.00 | 0.00 | 0.00 | 71 | 1015.1 |
| 20260502040107 | 49 | 299 | 3.5 | 5.2 | 0.00 | 0.00 | 0.00 | 71 | 1015.2 |
| 20260502035607 | 49 | 277 | 3.5 | 5.2 | 0.00 | 0.00 | 0.00 | 71 | 1015.4 |
| 20260502035106 | 49 | 291 | 4.3 | 5.2 | 0.00 | 0.00 | 0.00 | 71 | 1015.2 |
| 20260502034606 | 49 | 272 | 4.3 | 7.0 | 0.00 | 0.00 | 0.00 | 71 | 1015.1 |
| 20260502034106 | 49 | 281 | 3.5 | 5.2 | 0.00 | 0.00 | 0.00 | 70 | 1015.1 |
| 20260502033607 | 49 | 297 | 4.3 | 7.0 | 0.00 | 0.00 | 0.00 | 70 | 1015.2 |
| 20260502033107 | 50 | 261 | 3.5 | 5.2 | 0.00 | 0.00 | 0.00 | 70 | 1015.2 |
| 20260502032607 | 50 | 287 | 3.5 | 6.1 | 0.00 | 0.00 | 0.00 | 69 | 1015.2 |
| 20260502032111 | 50 | 290 | 3.5 | 4.3 | 0.00 | 0.00 | 0.00 | 69 | 1015.4 |
| 20260502031607 | 50 | 278 | 1.7 | 3.5 | 0.00 | 0.00 | 0.00 | 68 | 1015.5 |
| 20260502031107 | 50 | 291 | 2.6 | 4.3 | 0.00 | 0.00 | 0.00 | 68 | 1015.5 |
| 20260502030606 | 50 | 290 | 3.5 | 6.1 | 0.00 | 0.00 | 0.00 | 68 | 1015.5 |
| 20260502030106 | 50 | 292 | 4.3 | 7.0 | 0.00 | 0.00 | 0.00 | 68 | 1015.5 |
| 20260502025606 | 50 | 318 | 3.5 | 7.0 | 0.00 | 0.00 | 0.00 | 68 | 1015.5 |
| 20260502025107 | 50 | 267 | 3.5 | 6.1 | 0.00 | 0.00 | 0.00 | 68 | 1015.4 |
| 20260502024607 | 51 | 297 | 5.2 | 7.0 | 0.00 | 0.00 | 0.00 | 68 | 1015.1 |
| 20260502024108 | 51 | 300 | 1.7 | 5.2 | 0.00 | 0.00 | 0.00 | 68 | 1015.1 |
| 20260502023607 | 51 | 300 | 0.9 | 2.6 | 0.00 | 0.00 | 0.00 | 68 | 1015.2 |
| 20260502023107 | 51 | 297 | 3.5 | 5.2 | 0.00 | 0.00 | 0.00 | 68 | 1015.1 |
| 20260502022606 | 51 | 281 | 1.7 | 3.5 | 0.00 | 0.00 | 0.00 | 68 | 1015.0 |
| 20260502022106 | 51 | 281 | 3.5 | 5.2 | 0.00 | 0.00 | 0.00 | 69 | 1015.0 |
| 20260502021606 | 51 | 291 | 4.3 | 7.0 | 0.00 | 0.00 | 0.00 | 69 | 1014.8 |
| 20260502021107 | 51 | 278 | 2.6 | 4.3 | 0.00 | 0.00 | 0.00 | 70 | 1014.7 |
| 20260502020607 | 51 | 268 | 3.5 | 5.2 | 0.00 | 0.00 | 0.00 | 71 | 1014.7 |
| 20260502020106 | 51 | 300 | 4.3 | 6.1 | 0.00 | 0.00 | 0.00 | 71 | 1014.7 |
| 20260502015606 | 51 | 273 | 3.5 | 7.0 | 0.00 | 0.00 | 0.00 | 71 | 1014.6 |
| 20260502015107 | 51 | 357 | 2.6 | 5.2 | 0.00 | 0.00 | 0.00 | 71 | 1014.6 |
| 20260502014606 | 51 | 295 | 1.7 | 2.6 | 0.00 | 0.00 | 0.00 | 71 | 1014.4 |
| 20260502014109 | 51 | 302 | 0.9 | 1.7 | 0.00 | 0.00 | 0.00 | 71 | 1014.2 |
| 20260502013607 | 52 | 331 | 1.7 | 2.6 | 0.00 | 0.00 | 0.00 | 70 | 1014.1 |
| 20260502013106 | 52 | 273 | 3.5 | 7.0 | 0.00 | 0.00 | 0.00 | 70 | 1014.1 |
| 20260502012607 | 52 | 283 | 3.5 | 5.2 | 0.00 | 0.00 | 0.00 | 70 | 1014.2 |
| 20260502012107 | 52 | 287 | 5.2 | 7.8 | 0.00 | 0.00 | 0.00 | 69 | 1014.2 |
| 20260502011608 | 53 | 267 | 4.3 | 5.2 | 0.00 | 0.00 | 0.00 | 68 | 1014.1 |
| 20260502011106 | 53 | 281 | 5.2 | 8.7 | 0.00 | 0.00 | 0.00 | 67 | 1014.1 |
| 20260502010606 | 53 | 311 | 2.6 | 3.5 | 0.00 | 0.00 | 0.00 | 66 | 1013.9 |
| 20260502010107 | 54 | 274 | 2.6 | 3.5 | 0.00 | 0.00 | 0.00 | 64 | 1013.9 |